FW9022 Weather Reports


Display with metric or nautical units.
time (UTC)temp
F
wind
direction
speed
MPH
gust
MPH
rain 1hr
in
rain 24hr
in
rain mn
in
humidity
%
barometer
mb
20260503031818 43 234 0.0 1.0 0.00 0.00 0.00 75 1015.3
20260503030844 44 235 0.0 0.0 0.00 0.00 0.00 75 1015.4
20260503025824 44 235 0.0 0.0 0.00 0.00 0.00 73 1015.4
20260503024822 45 235 0.0 0.0 0.00 0.00 0.00 71 1015.4
20260503023857 45 234 0.0 0.0 0.00 0.00 0.00 71 1015.1
20260503022848 46 235 0.0 2.0 0.00 0.00 0.00 69 1015.0
20260503021822 46 235 0.0 0.0 0.00 0.00 0.00 67 1015.0
20260503020908 47 235 0.0 1.0 0.00 0.00 0.00 65 1014.7
20260503015830 48 235 0.0 0.0 0.00 0.00 0.00 64 1014.5
20260503014825 49 235 0.0 1.0 0.00 0.00 0.00 62 1014.5
20260503013820 49 235 0.0 0.0 0.00 0.00 0.00 60 1014.3
20260503012817 50 234 0.0 1.0 0.00 0.00 0.00 57 1014.8
20260503011831 51 235 0.0 2.0 0.00 0.00 0.00 55 1014.8
20260503010836 52 355 0.0 0.0 0.00 0.00 0.00 53 1014.7
20260503005820 53 355 0.0 2.0 0.00 0.00 0.00 52 1014.4
20260503004834 53 355 1.0 3.0 0.00 0.00 0.00 48 1014.4
20260503003828 53 314 1.0 4.0 0.00 0.00 0.00 47 1014.3
20260503002821 53 346 1.0 4.0 0.00 0.00 0.00 48 1014.0
20260503001820 54 360 0.0 2.0 0.00 0.00 0.00 49 1014.0
20260503000844 54 360 0.0 3.0 0.00 0.00 0.00 47 1013.7
20260502235843 55 22 0.0 3.0 0.00 0.00 0.00 46 1013.5
20260502234836 55 355 0.0 6.0 0.00 0.00 0.00 44 1013.5
20260502233835 56 299 3.0 6.0 0.00 0.00 0.00 43 1013.2
20260502232828 56 291 0.0 4.0 0.00 0.00 0.00 42 1012.9
20260502231822 56 315 2.0 7.0 0.00 0.00 0.00 41 1012.9
20260502230907 57 48 5.0 9.0 0.00 0.00 0.00 43 1012.7
20260502225828 57 14 4.0 13.0 0.00 0.00 0.00 41 1012.6
20260502224823 57 25 4.0 6.0 0.00 0.00 0.00 41 1012.6
20260502223856 57 355 5.0 9.0 0.00 0.00 0.00 41 1012.6
20260502222831 57 5 0.0 4.0 0.00 0.00 0.00 44 1012.5
20260502221823 57 349 2.0 6.0 0.00 0.00 0.00 43 1012.5
20260502220847 57 355 2.0 6.0 0.00 0.00 0.00 41 1012.2
20260502215826 57 277 3.0 10.0 0.00 0.00 0.00 40 1012.1
20260502214825 57 318 1.0 9.0 0.00 0.00 0.00 42 1012.1
20260502213820 57 355 4.0 10.0 0.00 0.00 0.00 42 1011.8
20260502212831 57 338 2.0 7.0 0.00 0.00 0.00 43 1011.6
20260502211828 57 360 0.0 10.0 0.00 0.00 0.00 43 1011.6
20260502210833 57 29 2.0 9.0 0.00 0.00 0.00 42 1011.4
20260502205832 58 9 3.0 10.0 0.00 0.00 0.00 42 1011.2
20260502204826 59 360 4.0 8.0 0.00 0.00 0.00 40 1011.2
20260502203824 59 355 3.0 12.0 0.00 0.00 0.00 39 1011.2
20260502202858 60 305 3.0 10.0 0.00 0.00 0.00 40 1011.2
20260502201831 60 355 5.0 10.0 0.00 0.00 0.00 39 1011.2
20260502200836 60 355 3.0 6.0 0.00 0.00 0.00 40 1011.2
20260502195820 59 31 3.0 10.0 0.00 0.00 0.00 41 1011.3
20260502194833 58 57 2.0 10.0 0.00 0.00 0.00 42 1011.3
20260502193827 58 360 1.0 9.0 0.00 0.00 0.00 42 1011.5
20260502192845 59 337 3.0 10.0 0.00 0.00 0.00 40 1012.1
20260502191837 60 310 4.0 6.0 0.00 0.00 0.00 39 1012.1
20260502190842 59 355 2.0 10.0 0.00 0.00 0.00 41 1011.6
20260502185819 58 337 3.0 10.0 0.00 0.00 0.00 39 1011.8
20260502184837 58 15 3.0 9.0 0.00 0.00 0.00 40 1011.8
20260502183831 58 19 3.0 6.0 0.00 0.00 0.00 41 1011.8
20260502182826 59 360 2.0 7.0 0.00 0.00 0.00 41 1011.8
20260502181840 58 304 1.0 5.0 0.00 0.00 0.00 42 1011.8
20260502180848 58 307 4.0 12.0 0.00 0.00 0.00 39 1011.9
20260502163826 57 286 2.0 6.0 0.00 0.00 0.00 39 1013.2
20260502162825 57 321 1.0 6.0 0.00 0.00 0.00 46 1013.6
20260502161819 57 19 4.0 7.0 0.00 0.00 0.00 48 1013.6
20260502160843 56 360 5.0 9.0 0.00 0.00 0.00 50 1013.7
20260502151829 53 355 0.0 2.0 0.00 0.00 0.00 59 1014.1
20260502150833 52 360 0.0 4.0 0.00 0.00 0.00 60 1014.0
20260502122824 50 338 1.0 3.0 0.00 0.00 0.00 72 1013.1
20260502121833 50 341 1.0 2.0 0.00 0.00 0.00 74 1013.1
20260502120838 50 342 1.0 3.0 0.00 0.00 0.00 74 1014.0
20260502115838 50 344 0.0 0.0 0.00 0.00 0.00 74 1013.7
20260502114831 50 344 0.0 0.0 0.00 0.00 0.00 75 1013.7
20260502113826 50 344 0.0 0.0 0.00 0.00 0.00 75 1013.7
20260502112824 51 344 0.0 0.0 0.00 0.00 0.00 75 1013.2
20260502111840 51 344 0.0 0.0 0.00 0.00 0.00 74 1013.2
20260502110843 51 344 0.0 0.0 0.00 0.00 0.00 75 1013.1
20260502105827 51 24 0.0 0.0 0.00 0.00 0.00 75 1013.1
20260502104820 51 24 0.0 0.0 0.00 0.00 0.00 74 1013.1
20260502103834 51 24 0.0 2.0 0.00 0.00 0.00 74 1012.9
20260502102829 51 344 0.0 1.0 0.00 0.00 0.00 74 1012.8
20260502100852 52 344 0.0 1.0 0.00 0.00 0.00 74 1012.6
20260502090842 53 348 0.0 2.0 0.00 0.00 0.00 73 1012.7
20260502070855 54 348 0.0 1.0 0.00 0.00 0.00 73 1012.6
20260502065834 54 348 0.0 3.0 0.00 0.00 0.00 72 1012.5
20260502064832 54 360 1.0 3.0 0.00 0.00 0.00 73 1012.5
20260502063826 54 17 0.0 0.0 0.00 0.00 0.00 74 1012.5
20260502062820 55 17 0.0 2.0 0.00 0.00 0.00 74 1012.5
20260502061819 55 17 0.0 1.0 0.00 0.00 0.00 73 1012.5
20260502060842 55 17 0.0 2.0 0.00 0.00 0.00 73 1012.6
20260502055822 55 17 0.0 0.0 0.00 0.00 0.00 72 1012.7
20260502054836 55 17 0.0 0.0 0.00 0.00 0.00 73 1012.7
20260502053835 55 17 0.0 2.0 0.00 0.00 0.00 71 1012.9
20260502052829 55 355 0.0 4.0 0.00 0.00 0.00 72 1013.1
20260502051821 54 292 0.0 2.0 0.00 0.00 0.00 75 1013.1
20260502050846 52 229 0.0 0.0 0.00 0.00 0.00 79 1013.2
20260502045829 52 229 0.0 1.0 0.00 0.00 0.00 79 1013.0
20260502044823 52 229 0.0 3.0 0.00 0.00 0.00 79 1013.0
20260502043817 52 19 0.0 0.0 0.00 0.00 0.00 81 1012.8
20260502042854 52 20 0.0 0.0 0.00 0.00 0.00 79 1012.7
20260502041847 52 20 0.0 0.0 0.00 0.00 0.00 78 1012.7
20260502040831 52 20 0.0 0.0 0.00 0.00 0.00 79 1012.8
20260502035831 52 19 0.0 0.0 0.00 0.00 0.00 78 1012.9
20260502034830 52 19 0.0 0.0 0.00 0.00 0.00 77 1012.9
20260502033825 53 19 0.0 0.0 0.00 0.00 0.00 76 1012.9
20260502032819 53 19 0.0 0.0 0.00 0.00 0.00 76 1013.1